ITY1675 LIRF-LIRQ

Flight info

Callsign ITY1675
Flight time 0h 30m
Altitude 20000
Route SOVAN DCT AMTEL/N0374F180 L995 IBRID
Aircraft A319/M-SDE3FGHIRWY/LB1

Departure

Time 2026-05-01 10:32
Airport Rome–Fiumicino Leonardo da Vinci International Airport (LIRF)

Arrival

Time 2026-05-01 11:02
Airport Florence Airport, Peretola (LIRQ)
Time Latitude Longitude Altitude Speed Heading
2026-05-01 10:01 41.79660 12.25951 19 ft 0 kts 296°
2026-05-01 10:20 41.79656 12.25962 19 ft 4 kts 299°
2026-05-01 10:20 41.79640 12.25992 20 ft 4 kts 316°
2026-05-01 10:21 41.79619 12.26011 20 ft 4 kts 349°
2026-05-01 10:21 41.79601 12.26010 21 ft 0 kts 25°
2026-05-01 10:23 41.79602 12.26010 21 ft 0 kts 25°
2026-05-01 10:23 41.79618 12.26021 19 ft 5 kts 25°
2026-05-01 10:24 41.79742 12.26092 19 ft 13 kts 358°
2026-05-01 10:24 41.79842 12.25847 19 ft 18 kts 296°
2026-05-01 10:25 41.79956 12.25525 17 ft 20 kts 295°
2026-05-01 10:25 41.80077 12.25163 19 ft 22 kts 287°
2026-05-01 10:26 41.80111 12.24960 17 ft 23 kts 272°
2026-05-01 10:26 41.80072 12.24745 13 ft 26 kts 251°
2026-05-01 10:26 41.79943 12.24276 11 ft 27 kts 250°
2026-05-01 10:27 41.79860 12.23835 14 ft 23 kts 250°
2026-05-01 10:27 41.79686 12.23745 14 ft 17 kts 162°
2026-05-01 10:28 41.79560 12.23798 13 ft 20 kts 162°
2026-05-01 10:28 41.79288 12.23911 16 ft 22 kts 162°
2026-05-01 10:28 41.79132 12.23976 15 ft 26 kts 163°
2026-05-01 10:29 41.78788 12.24123 12 ft 25 kts 162°
2026-05-01 10:29 41.78606 12.24199 12 ft 28 kts 163°
2026-05-01 10:30 41.78305 12.24207 17 ft 23 kts 255°
2026-05-01 10:30 41.78338 12.23982 18 ft 0 kts 343°
2026-05-01 10:31 41.78636 12.23859 16 ft 83 kts 342°
2026-05-01 10:31 41.80500 12.23077 360 ft 171 kts 343°
2026-05-01 10:32 41.82790 12.21918 1769 ft 183 kts 328°
2026-05-01 10:32 41.83529 12.20395 2148 ft 214 kts 290°
2026-05-01 10:32 41.84118 12.16019 3513 ft 261 kts 281°
2026-05-01 10:33 41.84650 12.10759 4774 ft 293 kts 281°
2026-05-01 10:33 41.85572 12.05668 6547 ft 277 kts 301°
2026-05-01 10:34 41.86829 12.03772 7563 ft 271 kts 329°
2026-05-01 10:34 41.88536 12.02809 8638 ft 265 kts 351°
2026-05-01 10:34 41.90340 12.02320 9774 ft 264 kts 351°
2026-05-01 10:35 41.94061 12.01257 11117 ft 294 kts 350°
2026-05-01 10:35 41.96129 12.00832 11684 ft 306 kts 358°
2026-05-01 10:35 41.98265 12.00964 12526 ft 310 kts
2026-05-01 10:35 42.00420 12.01274 13399 ft 313 kts
2026-05-01 10:36 42.04778 12.01911 15078 ft 317 kts
2026-05-01 10:36 42.06977 12.02232 15878 ft 318 kts
2026-05-01 10:36 42.09180 12.02555 16712 ft 320 kts
2026-05-01 10:37 42.11397 12.02887 17515 ft 322 kts
2026-05-01 10:37 42.15878 12.03559 19045 ft 326 kts
2026-05-01 10:37 42.18149 12.03786 19684 ft 329 kts 359°
2026-05-01 10:38 42.20447 12.03461 20091 ft 334 kts 352°
2026-05-01 10:38 42.22743 12.02949 20210 ft 335 kts 352°
2026-05-01 10:38 42.25040 12.02429 20234 ft 335 kts 352°
2026-05-01 10:38 42.27334 12.01909 20231 ft 334 kts 352°
2026-05-01 10:39 42.29631 12.01389 20228 ft 334 kts 352°
2026-05-01 10:39 42.31924 12.00867 20225 ft 334 kts 352°
2026-05-01 10:39 42.34217 12.00343 20221 ft 334 kts 352°
2026-05-01 10:39 42.36509 11.99822 20221 ft 334 kts 352°
2026-05-01 10:40 42.38803 11.99301 20224 ft 334 kts 352°
2026-05-01 10:40 42.41093 11.98786 20218 ft 334 kts 352°
2026-05-01 10:40 42.43385 11.98275 20221 ft 334 kts 352°
2026-05-01 10:40 42.45677 11.97765 20220 ft 334 kts 352°
2026-05-01 10:41 42.47969 11.97250 20220 ft 334 kts 352°
2026-05-01 10:41 42.50265 11.96732 20222 ft 334 kts 352°
2026-05-01 10:41 42.54851 11.95692 20230 ft 334 kts 352°
2026-05-01 10:42 42.57142 11.95172 20238 ft 334 kts 352°
2026-05-01 10:42 42.59433 11.94655 20244 ft 334 kts 352°
2026-05-01 10:42 42.61695 11.94141 20239 ft 335 kts 352°
2026-05-01 10:42 42.64000 11.93615 20254 ft 336 kts 352°
2026-05-01 10:43 42.66307 11.93089 20263 ft 336 kts 352°
2026-05-01 10:43 42.68617 11.92567 20268 ft 336 kts 353°
2026-05-01 10:43 42.70926 11.92045 20274 ft 337 kts 352°
2026-05-01 10:43 42.73238 11.91516 20287 ft 337 kts 352°
2026-05-01 10:44 42.75548 11.90987 20290 ft 337 kts 352°
2026-05-01 10:44 42.77857 11.90458 20296 ft 337 kts 352°
2026-05-01 10:44 42.80169 11.89930 20297 ft 337 kts 352°
2026-05-01 10:44 42.82474 11.89358 20301 ft 337 kts 348°
2026-05-01 10:45 42.84690 11.88281 20307 ft 341 kts 338°
2026-05-01 10:45 42.86793 11.86757 20308 ft 342 kts 336°
2026-05-01 10:45 42.88888 11.85217 20308 ft 342 kts 336°
2026-05-01 10:45 42.90983 11.83682 20311 ft 342 kts 336°
2026-05-01 10:46 42.93079 11.82154 20311 ft 342 kts 336°
2026-05-01 10:46 42.95180 11.80621 20313 ft 342 kts 336°
2026-05-01 10:46 42.97280 11.79086 20315 ft 342 kts 336°
2026-05-01 10:46 42.99379 11.77551 20322 ft 343 kts 336°
2026-05-01 10:47 43.01481 11.76011 20319 ft 343 kts 336°
2026-05-01 10:47 43.03580 11.74470 20319 ft 344 kts 336°
2026-05-01 10:47 43.05694 11.72915 20319 ft 345 kts 336°
2026-05-01 10:47 43.07808 11.71359 20325 ft 346 kts 336°
2026-05-01 10:48 43.09919 11.69806 20167 ft 343 kts 336°
2026-05-01 10:48 43.12043 11.68244 19359 ft 349 kts 336°
2026-05-01 10:48 43.14173 11.66674 18884 ft 345 kts 336°
2026-05-01 10:48 43.16269 11.65124 18418 ft 340 kts 336°
2026-05-01 10:49 43.18340 11.63594 17937 ft 336 kts 336°
2026-05-01 10:49 43.20380 11.62084 17460 ft 331 kts 336°
2026-05-01 10:49 43.22358 11.60476 16973 ft 331 kts 329°
2026-05-01 10:49 43.24152 11.58502 16487 ft 330 kts 326°
2026-05-01 10:50 43.25924 11.56521 16008 ft 327 kts 326°
2026-05-01 10:50 43.27683 11.54560 15535 ft 325 kts 326°
2026-05-01 10:50 43.29434 11.52617 15052 ft 322 kts 326°
2026-05-01 10:50 43.31171 11.50687 14598 ft 321 kts 326°
2026-05-01 10:51 43.32900 11.48759 14127 ft 320 kts 326°
2026-05-01 10:51 43.34623 11.46835 13618 ft 318 kts 326°
2026-05-01 10:51 43.36332 11.44927 13136 ft 315 kts 326°
2026-05-01 10:51 43.38027 11.43037 12662 ft 313 kts 326°
2026-05-01 10:52 43.39710 11.41156 12178 ft 311 kts 326°
2026-05-01 10:52 43.41387 11.39278 11702 ft 310 kts 326°
2026-05-01 10:52 43.43055 11.37405 11225 ft 309 kts 326°
2026-05-01 10:52 43.44716 11.35537 10765 ft 306 kts 326°
2026-05-01 10:53 43.46326 11.33719 10621 ft 292 kts 326°
2026-05-01 10:53 43.47846 11.31934 10433 ft 286 kts 321°
2026-05-01 10:53 43.49111 11.29812 10211 ft 286 kts 312°
2026-05-01 10:53 43.50297 11.27619 10074 ft 285 kts 313°
2026-05-01 10:54 43.51490 11.25431 9657 ft 289 kts 313°
2026-05-01 10:54 43.52697 11.23219 9292 ft 286 kts 312°
2026-05-01 10:54 43.53888 11.21028 8881 ft 286 kts 312°
2026-05-01 10:54 43.55075 11.18841 8364 ft 284 kts 312°
2026-05-01 10:55 43.56258 11.16661 7821 ft 284 kts 312°
2026-05-01 10:55 43.57440 11.14481 7186 ft 287 kts 312°
2026-05-01 10:55 43.58631 11.12284 6797 ft 281 kts 312°
2026-05-01 10:55 43.59769 11.10168 6628 ft 269 kts 313°
2026-05-01 10:56 43.60860 11.08134 6511 ft 258 kts 313°
2026-05-01 10:56 43.61908 11.06182 6243 ft 253 kts 313°
2026-05-01 10:56 43.62989 11.04192 5539 ft 266 kts 313°
2026-05-01 10:56 43.64126 11.02107 4952 ft 273 kts 312°
2026-05-01 10:57 43.65380 11.00259 4766 ft 253 kts 334°
2026-05-01 10:57 43.66960 10.99725 4612 ft 226 kts 10°
2026-05-01 10:57 43.68326 11.00616 3993 ft 219 kts 48°
2026-05-01 10:57 43.69222 11.02304 3532 ft 214 kts 51°
2026-05-01 10:58 43.70165 11.03826 3208 ft 208 kts 48°
2026-05-01 10:58 43.71124 11.05292 2912 ft 203 kts 48°
2026-05-01 10:58 43.72052 11.06713 2648 ft 195 kts 47°
2026-05-01 10:58 43.72934 11.08069 2416 ft 180 kts 47°
2026-05-01 10:59 43.73731 11.09293 2150 ft 161 kts 48°
2026-05-01 10:59 43.74441 11.10385 1948 ft 145 kts 49°
2026-05-01 10:59 43.75075 11.11362 1768 ft 130 kts 47°
2026-05-01 10:59 43.75650 11.12248 1591 ft 118 kts 47°
2026-05-01 11:00 43.76192 11.13083 1418 ft 113 kts 47°
2026-05-01 11:00 43.76719 11.13894 1274 ft 113 kts 47°
2026-05-01 11:00 43.77228 11.14679 1132 ft 113 kts 48°
2026-05-01 11:00 43.77750 11.15482 986 ft 113 kts 47°
2026-05-01 11:01 43.78282 11.16303 842 ft 113 kts 49°
2026-05-01 11:01 43.78794 11.17092 693 ft 109 kts 49°
2026-05-01 11:01 43.79290 11.17856 546 ft 105 kts 45°
2026-05-01 11:01 43.79783 11.18627 399 ft 111 kts 47°
2026-05-01 11:02 43.80310 11.19435 234 ft 114 kts 48°
2026-05-01 11:02 43.80820 11.20229 134 ft 103 kts 48°
2026-05-01 11:02 43.81110 11.20673 138 ft 32 kts 49°
2026-05-01 11:02 43.81229 11.20858 143 ft 19 kts 47°
2026-05-01 11:03 43.81270 11.20958 146 ft 8 kts 88°
2026-05-01 11:03 43.81267 11.20996 147 ft 0 kts 97°
2026-05-01 11:03 43.81265 11.21013 147 ft 7 kts 97°
2026-05-01 11:03 43.81260 11.21088 148 ft 8 kts 94°
2026-05-01 11:04 43.81255 11.21172 149 ft 10 kts 94°
2026-05-01 11:04 43.81291 11.21270 150 ft 15 kts 49°
2026-05-01 11:04 43.81379 11.21382 151 ft 18 kts 17°
2026-05-01 11:04 43.81500 11.21328 148 ft 19 kts 309°
2026-05-01 11:05 43.81440 11.21179 148 ft 20 kts 229°
2026-05-01 11:05 43.81340 11.21026 146 ft 22 kts 227°
2026-05-01 11:05 43.81229 11.20856 143 ft 25 kts 229°
2026-05-01 11:05 43.81104 11.20663 137 ft 28 kts 228°
2026-05-01 11:06 43.80969 11.20454 133 ft 30 kts 229°
2026-05-01 11:06 43.80831 11.20238 133 ft 30 kts 228°
2026-05-01 11:06 43.80688 11.20040 132 ft 28 kts 201°
2026-05-01 11:07 43.80478 11.20050 134 ft 3 kts 167°
2026-05-01 11:07 43.80451 11.20012 133 ft 10 kts 226°
2026-05-01 11:07 43.80399 11.19977 129 ft 5 kts 180°
2026-05-01 11:07 43.80390 11.19977 128 ft 0 kts 180°
2026-05-01 11:08 43.80356 11.19971 128 ft 3 kts 212°
2026-05-01 11:09 43.80354 11.19939 130 ft 5 kts 269°
2026-05-01 11:09 43.80354 11.19901 125 ft 0 kts 269°